Location: Unspecified
(48.5670°N, 0.0000°E)
Time: 18:16:45
(UTC+00:00)

Altair - Pass Details

Date: 30 August 2019
Orbit: 1501 x 1683 km, 47.2° (Epoch: 17 October)

Event Time Altitude Azimuth Distance (km) Brightness Sun altitude
Exits shadow 23:42:47 25° 105° (ESE) 2,847 8.7 -32.5°
Drops below altitude 10° 23:47:31 10° 80° (E) 3,827 9.6 -32.5°
Sets 23:51:02 0° 70° (ENE) 4,788 10.3 -32.6°
